INTELSAT 906 (IS-906)

Last updated on Wed Sep 17 2025 00:02:46 GMT+0000 (Coordinated Universal Time)

1 27513U 02041A 25259.45373145 -.00000005 00000+0 00000+0 0 9994 2 27513 5.1021 76.2921 0002564 130.2970 16.5767 1.00273593 84289
UTC large
Height (km)
Speed (km/s)
/
Latitude / Longitude
Inclination (degrees)
Orbital Period (minutes)
Azimuth
Elevation
Range (km)
Doppler Factor

Next 0 passes for location: London (51.5072 / 0.1276)

Sorry there are no passes over London.